Weather History for Lanseria, South Africa

Change the Weather History Date:

Friday, February 15, 2013

  Actual Average Record
Temperature  
Mean Temperature 76 °F -  
Max Temperature 89 °F - - ()
Min Temperature 62 °F - - ()
Cooling Degree Days 10    
Growing Degree Days 26 (Base 50)    
Moisture  
Dew Point 55 °F    
Average Humidity 50    
Maximum Humidity 88    
Minimum Humidity 24    
Precipitation  
Precipitation 0.00 in - - ()
Sea Level Pressure  
Sea Level Pressure 30.07 in    
Wind  
Wind Speed 4 mph ()    
Max Wind Speed 10 mph    
Max Gust Speed -    
Visibility 6.2 miles    
Events      
T = Trace of Precipitation, MM = Missing Value Source: Averaged Metar Reports

Daily Weather History Graph

Daily Weather History Graph

Search for Another Location

Airport:

Trip Planner

Search our weather history database for the weather conditions in past years. The results will help you decide how hot, cold, wet, or windy it might be!

Date:

Astronomy

Feb. 15, 2013 Rise Set
Actual Time 5:53 AM SAST 6:50 PM SAST
Civil Twilight 5:29 AM SAST 7:14 PM SAST
Nautical Twilight 5:01 AM SAST 7:42 PM SAST
Astronomical Twilight 4:32 AM SAST 8:11 PM SAST
Moon 10:38 AM SAST (2/15) 10:03 PM SAST (2/15)
Length of Visible Light 13h 45m
Length of Day
12h 57m
Waxing Crescent, 27% of the Moon is Illuminated
Feb 15
Waxing Crescent
Feb 17
First Quarter
Feb 25
Full
Mar 4
Last Quarter
Mar 11
New

Hourly Weather History & Observations

Time (SAST) Temp. Heat Index Dew Point Humidity Pressure Visibility Wind Dir Wind Speed Gust Speed Precip Events Conditions
4:30 AM 64.4 °F - 60.8 °F 88% 30.04 in - ESE 5.8 mph - N/A   Clear
5:00 AM 64.4 °F - 60.8 °F 88% 30.04 in - SSW 4.6 mph - N/A   Clear
6:00 AM 62.6 °F - 59.0 °F 88% 30.06 in - SW 6.9 mph - N/A   Clear
7:00 AM 66.2 °F - 60.8 °F 83% 30.09 in 6.2 mi ESE 3.5 mph - N/A   Partly Cloudy
7:49 AM 69.8 °F - 62.6 °F 78% 30.12 in 6.2 mi Variable 2.3 mph - N/A   Partly Cloudy
8:00 AM 71.6 °F - 60.8 °F 69% 30.12 in 6.2 mi Variable 2.3 mph - N/A   Partly Cloudy
8:18 AM 75.2 °F - 60.8 °F 61% 30.12 in 6.2 mi Variable 2.3 mph - N/A   Partly Cloudy
9:00 AM 77.0 °F - 59.0 °F 54% 30.12 in 6.2 mi ENE 4.6 mph - N/A   Partly Cloudy
10:00 AM 80.6 °F 81.1 °F 59.0 °F 48% 30.12 in 6.2 mi NE 5.8 mph - N/A   Partly Cloudy
11:00 AM 82.4 °F 82.5 °F 59.0 °F 45% 30.09 in - Variable 4.6 mph - N/A   Clear
12:00 PM 84.2 °F 83.8 °F 59.0 °F 42% 30.09 in - Variable 3.5 mph - N/A   Clear
1:00 PM 87.8 °F - 51.8 °F 29% 30.06 in - Variable 4.6 mph - N/A   Clear
2:00 PM 87.8 °F - 46.4 °F 24% 30.04 in - East 10.4 mph - N/A   Clear
3:00 PM 89.6 °F - 50.0 °F 26% 30.04 in - North 6.9 mph - N/A   Clear
4:00 PM 89.6 °F - 48.2 °F 24% 30.01 in 6.2 mi North 8.1 mph - N/A   Partly Cloudy
5:00 PM 87.8 °F - 48.2 °F 25% 30.01 in - East 5.8 mph - N/A   Clear
6:00 PM 86.0 °F - 46.4 °F 25% 30.01 in - Calm Calm - N/A   Clear
7:00 PM 84.2 °F - 46.4 °F 27% 30.04 in 6.2 mi Calm Calm - N/A   Scattered Clouds
8:00 PM 78.8 °F - 57.2 °F 47% 30.04 in - Variable 2.3 mph - N/A   Clear
9:00 PM 78.8 °F - 55.4 °F 44% 30.06 in - East 5.8 mph - N/A   Clear
10:00 PM 78.8 °F - 55.4 °F 44% 30.09 in - ENE 5.8 mph - N/A   Clear
11:00 PM 75.2 °F - 53.6 °F 47% 30.09 in - ESE 4.6 mph - N/A   Clear